Hourly Weather Cuiaba

Today, 25 September, Friday

Time Temperature Precipitation Wind Pressure Humidity
00:00 +30°C° 0 mm 1 mps 739 mmHg 39%
01:00 +30°C° 0 mm 1 mps 739 mmHg 41%
02:00 +29°C° 0 mm 1 mps 739 mmHg 42%
03:00 +29°C° 0 mm 1 mps 739 mmHg 43%
04:00 +28°C° 0 mm 1 mps 739 mmHg 45%
05:00 +28°C° 0 mm 1 mps 739 mmHg 46%
06:00 +31°C° 0 mm 1 mps 740 mmHg 40%
07:00 +34°C° 0 mm 1 mps 740 mmHg 34%
08:00 +38°C° 0 mm 2 mps 741 mmHg 29%
09:00 +40°C° 0 mm 2 mps 741 mmHg 23%
10:00 +43°C° 0 mm 2 mps 741 mmHg 18%
11:00 +47°C° 0 mm 2 mps 741 mmHg 13%
12:00 +47°C° 0 mm 2 mps 739 mmHg 12%
13:00 +47°C° 0 mm 2 mps 738 mmHg 11%
14:00 +48°C° 0 mm 2 mps 737 mmHg 10%
15:00 +46°C° 0 mm 2 mps 737 mmHg 11%
16:00 +45°C° 0 mm 2 mps 737 mmHg 11%
17:00 +43°C° 0 mm 2 mps 736 mmHg 12%
18:00 +40°C° 0 mm 2 mps 737 mmHg 15%
19:00 +38°C° 0 mm 2 mps 737 mmHg 19%
20:00 +35°C° 0 mm 2 mps 737 mmHg 22%
21:00 +34°C° 0 mm 2 mps 737 mmHg 26%
22:00 +32°C° 0 mm 2 mps 737 mmHg 29%
23:00 +31°C° 0 mm 2 mps 738 mmHg 33%

Tomorrow, 26 September, Saturday

Time Temperature Precipitation Wind Pressure Humidity
00:00 +30°C° 0 mm 2 mps 737 mmHg 35%
01:00 +30°C° 0 mm 2 mps 737 mmHg 37%
02:00 +30°C° 0 mm 2 mps 737 mmHg 40%
03:00 +29°C° 0 mm 3 mps 737 mmHg 41%
04:00 +29°C° 0 mm 3 mps 737 mmHg 42%
05:00 +29°C° 0 mm 3 mps 738 mmHg 44%
06:00 +32°C° 0 mm 4 mps 738 mmHg 41%
07:00 +34°C° 0 mm 4 mps 739 mmHg 38%
08:00 +36°C° 0 mm 5 mps 739 mmHg 35%
09:00 +39°C° 0 mm 5 mps 739 mmHg 30%
10:00 +42°C° 0 mm 5 mps 739 mmHg 25%
11:00 +44°C° 0 mm 4 mps 739 mmHg 21%
12:00 +44°C° 0 mm 4 mps 738 mmHg 20%
13:00 +44°C° 0 mm 4 mps 737 mmHg 19%
14:00 +44°C° 0 mm 3 mps 736 mmHg 19%
15:00 +43°C° 0 mm 3 mps 735 mmHg 19%
16:00 +43°C° 0 mm 3 mps 735 mmHg 19%
17:00 +42°C° 0 mm 3 mps 734 mmHg 18%
18:00 +39°C° 0 mm 3 mps 735 mmHg 22%
19:00 +36°C° 0 mm 2 mps 735 mmHg 26%
20:00 +34°C° 0 mm 2 mps 735 mmHg 30%
21:00 +32°C° 0 mm 2 mps 736 mmHg 33%
22:00 +31°C° 0 mm 2 mps 736 mmHg 35%
23:00 +31°C° 0 mm 2 mps 736 mmHg 38%

Day after tomorrow, 27 September, Sunday

Time Temperature Precipitation Wind Pressure Humidity
00:00 +30°C° 0 mm 2 mps 736 mmHg 39%
01:00 +30°C° 0 mm 2 mps 736 mmHg 41%
02:00 +29°C° 0 mm 2 mps 736 mmHg 42%
03:00 +29°C° 0 mm 2 mps 736 mmHg 44%
04:00 +29°C° 0 mm 2 mps 736 mmHg 46%
05:00 +28°C° 0 mm 2 mps 736 mmHg 48%
06:00 +30°C° 0 mm 3 mps 737 mmHg 44%
07:00 +33°C° 0 mm 4 mps 738 mmHg 40%
08:00 +36°C° 0 mm 4 mps 739 mmHg 37%
09:00 +38°C° 0 mm 4 mps 738 mmHg 31%
10:00 +41°C° 0 mm 4 mps 738 mmHg 26%
11:00 +44°C° 0 mm 4 mps 738 mmHg 20%
12:00 +45°C° 0 mm 4 mps 737 mmHg 18%
13:00 +45°C° 0 mm 3 mps 736 mmHg 16%
14:00 +46°C° 0 mm 3 mps 735 mmHg 14%
15:00 +45°C° 0 mm 3 mps 735 mmHg 15%
16:00 +43°C° 0 mm 2 mps 735 mmHg 15%
17:00 +42°C° 0 mm 2 mps 734 mmHg 16%
18:00 +40°C° 0 mm 2 mps 735 mmHg 18%
19:00 +37°C° 0 mm 2 mps 735 mmHg 21%
20:00 +34°C° 0 mm 1 mps 736 mmHg 23%
21:00 +34°C° 0 mm 1 mps 736 mmHg 24%
22:00 +33°C° 0 mm 1 mps 736 mmHg 26%
23:00 +33°C° 0 mm 1 mps 737 mmHg 28%

28 September, Monday

Time Temperature Precipitation Wind Pressure Humidity
00:00 +32°C° 0 mm 1 mps 736 mmHg 29%
01:00 +32°C° 0 mm 1 mps 736 mmHg 31%
02:00 +31°C° 0 mm 2 mps 736 mmHg 32%
03:00 +31°C° 0 mm 1 mps 736 mmHg 32%
04:00 +31°C° 0 mm 1 mps 737 mmHg 32%
05:00 +31°C° 0 mm 1 mps 737 mmHg 31%
06:00 +33°C° 0 mm 1 mps 738 mmHg 29%
07:00 +35°C° 0 mm 1 mps 738 mmHg 27%
08:00 +37°C° 0 mm 1 mps 739 mmHg 25%
09:00 +41°C° 0 mm 1 mps 739 mmHg 22%
10:00 +43°C° 0 mm 1 mps 738 mmHg 20%
11:00 +45°C° 0 mm 1 mps 738 mmHg 18%
12:00 +45°C° 0 mm 1 mps 737 mmHg 17%
13:00 +45°C° 0 mm 1 mps 736 mmHg 16%
14:00 +46°C° 0 mm 2 mps 735 mmHg 15%
15:00 +44°C° 0 mm 1 mps 735 mmHg 16%
16:00 +43°C° 0 mm 1 mps 735 mmHg 16%
17:00 +42°C° 0 mm 1 mps 734 mmHg 17%
18:00 +39°C° 0 mm 1 mps 734 mmHg 21%
19:00 +36°C° 0 mm 1 mps 735 mmHg 26%
20:00 +33°C° 0 mm 1 mps 735 mmHg 30%
21:00 +32°C° 0 mm 1 mps 735 mmHg 34%
22:00 +31°C° 0 mm 1 mps 735 mmHg 39%
23:00 +30°C° 0 mm 1 mps 736 mmHg 43%

29 September, Tuesday

Time Temperature Precipitation Wind Pressure Humidity
00:00 +30°C° 0 mm 1 mps 736 mmHg 44%
01:00 +29°C° 0 mm 1 mps 735 mmHg 46%
02:00 +29°C° 0 mm 1 mps 735 mmHg 47%
03:00 +29°C° 0 mm 1 mps 736 mmHg 49%
04:00 +29°C° 0 mm 1 mps 736 mmHg 52%
05:00 +28°C° 0 mm 1 mps 736 mmHg 54%
06:00 +31°C° 0 mm 1 mps 737 mmHg 48%
07:00 +33°C° 0 mm 1 mps 737 mmHg 42%
08:00 +35°C° 0 mm 1 mps 738 mmHg 36%
09:00 +39°C° 0 mm 2 mps 738 mmHg 30%
10:00 +42°C° 0 mm 2 mps 738 mmHg 23%
11:00 +45°C° 0 mm 3 mps 737 mmHg 17%
12:00 +46°C° 0 mm 3 mps 736 mmHg 15%
13:00 +48°C° 0 mm 4 mps 735 mmHg 13%
14:00 +49°C° 0 mm 4 mps 734 mmHg 11%
15:00 +47°C° 0 mm 3 mps 734 mmHg 11%
16:00 +46°C° 0 mm 2 mps 734 mmHg 12%
17:00 +44°C° 0 mm 1 mps 734 mmHg 12%
18:00 +41°C° 0 mm 1 mps 734 mmHg 15%
19:00 +37°C° 0 mm 1 mps 734 mmHg 18%
20:00 +34°C° 0 mm 1 mps 735 mmHg 21%
21:00 +33°C° 0 mm 1 mps 735 mmHg 23%
22:00 +33°C° 0 mm 1 mps 735 mmHg 24%
23:00 +32°C° 0 mm 1 mps 735 mmHg 25%

30 September, Wednesday

Time Temperature Precipitation Wind Pressure Humidity
00:00 +32°C° 0 mm 1 mps 735 mmHg 24%
01:00 +32°C° 0 mm 1 mps 735 mmHg 24%
02:00 +32°C° 0 mm 1 mps 735 mmHg 23%
03:00 +31°C° 0 mm 1 mps 735 mmHg 25%
04:00 +30°C° 0 mm 1 mps 735 mmHg 26%
05:00 +30°C° 0 mm 1 mps 736 mmHg 28%
06:00 +32°C° 0 mm 2 mps 736 mmHg 24%
07:00 +36°C° 0 mm 2 mps 737 mmHg 21%
08:00 +39°C° 0 mm 3 mps 738 mmHg 18%
09:00 +42°C° 0 mm 3 mps 737 mmHg 17%
10:00 +44°C° 0 mm 3 mps 737 mmHg 15%
11:00 +47°C° 0 mm 3 mps 737 mmHg 14%
12:00 +47°C° 0 mm 3 mps 736 mmHg 13%
13:00 +48°C° 0 mm 4 mps 735 mmHg 12%
14:00 +49°C° 0 mm 4 mps 734 mmHg 12%
15:00 +48°C° 0 mm 4 mps 734 mmHg 12%
16:00 +46°C° 0 mm 3 mps 734 mmHg 13%
17:00 +45°C° 0 mm 3 mps 733 mmHg 14%
18:00 +41°C° 0 mm 2 mps 734 mmHg 17%
19:00 +39°C° 0 mm 2 mps 734 mmHg 20%
20:00 +37°C° 0 mm 2 mps 734 mmHg 23%
21:00 +35°C° 0 mm 2 mps 735 mmHg 24%
22:00 +34°C° 0 mm 2 mps 735 mmHg 26%
23:00 +32°C° 0 mm 2 mps 735 mmHg 28%
Show more